• Em Portugal
  • Lista de países
  • Para 7 dias
  • Temperatura da água
  • Mapas de satélite
  • Mapa do tempo
  • Widgets de tempo
  • user-avatar
    Iniciar Sessão

    Previsão horária em Babarygino

    Hoje, 24 Setembro, Segunda-feira

    Tempo Temperatura Precipitação Vento Pressão Humidade
    00:00 +7°C° 0 mm 3 m/s 745 mmHg 91%
    01:00 +7°C° 0 mm 3 m/s 745 mmHg 93%
    02:00 +5°C° 0 mm 3 m/s 745 mmHg 96%
    03:00 +6°C° 0 mm 2 m/s 745 mmHg 97%
    04:00 +6°C° 0 mm 2 m/s 744 mmHg 97%
    05:00 +6°C° 0 mm 2 m/s 744 mmHg 97%
    06:00 +7°C° 0 mm 2 m/s 744 mmHg 94%
    07:00 +7°C° 0 mm 2 m/s 744 mmHg 92%
    08:00 +9°C° 0 mm 1 m/s 744 mmHg 89%
    09:00 +10°C° 0.1 mm 1 m/s 744 mmHg 86%
    10:00 +11°C° 0.1 mm 1 m/s 743 mmHg 83%
    11:00 +11°C° 0.1 mm 1 m/s 743 mmHg 80%
    12:00 +11°C° 0.5 mm 1 m/s 743 mmHg 82%
    13:00 +11°C° 0.5 mm 1 m/s 742 mmHg 83%
    14:00 +10°C° 0.5 mm 2 m/s 742 mmHg 85%
    15:00 +10°C° 0.5 mm 2 m/s 742 mmHg 87%
    16:00 +9°C° 0.5 mm 2 m/s 742 mmHg 89%
    17:00 +9°C° 0.5 mm 3 m/s 742 mmHg 90%
    18:00 +9°C° 0.3 mm 3 m/s 742 mmHg 91%
    19:00 +7°C° 0.3 mm 4 m/s 742 mmHg 91%
    20:00 +7°C° 0.3 mm 4 m/s 742 mmHg 92%
    21:00 +7°C° 0.1 mm 4 m/s 743 mmHg 90%
    22:00 +6°C° 0.1 mm 4 m/s 743 mmHg 88%
    23:00 +6°C° 0.1 mm 5 m/s 743 mmHg 87%

    Amanhã, 25 Setembro, Terça-feira

    Tempo Temperatura Precipitação Vento Pressão Humidade
    00:00 +6°C° 0 mm 4 m/s 744 mmHg 87%
    01:00 +5°C° 0 mm 4 m/s 744 mmHg 87%
    02:00 +5°C° 0 mm 4 m/s 745 mmHg 88%
    03:00 +5°C° 0 mm 4 m/s 745 mmHg 88%
    04:00 +5°C° 0 mm 4 m/s 746 mmHg 88%
    05:00 +4°C° 0 mm 4 m/s 747 mmHg 88%
    06:00 +5°C° 0 mm 5 m/s 747 mmHg 85%
    07:00 +5°C° 0 mm 5 m/s 748 mmHg 82%
    08:00 +5°C° 0 mm 6 m/s 749 mmHg 78%
    09:00 +7°C° 0 mm 6 m/s 749 mmHg 71%
    10:00 +8°C° 0 mm 6 m/s 750 mmHg 64%
    11:00 +8°C° 0 mm 6 m/s 751 mmHg 57%
    12:00 +8°C° 0.1 mm 6 m/s 751 mmHg 55%
    13:00 +8°C° 0.1 mm 6 m/s 752 mmHg 53%
    14:00 +8°C° 0.1 mm 6 m/s 752 mmHg 52%
    15:00 +8°C° 0 mm 6 m/s 753 mmHg 54%
    16:00 +7°C° 0 mm 5 m/s 754 mmHg 56%
    17:00 +6°C° 0 mm 5 m/s 754 mmHg 57%
    18:00 +5°C° 0 mm 4 m/s 755 mmHg 60%
    19:00 +4°C° 0 mm 4 m/s 756 mmHg 62%
    20:00 +3°C° 0 mm 4 m/s 757 mmHg 64%
    21:00 +3°C° 0 mm 3 m/s 757 mmHg 66%
    22:00 +3°C° 0 mm 3 m/s 757 mmHg 67%
    23:00 +2°C° 0 mm 3 m/s 758 mmHg 69%

    Depois de amanhã, 26 Setembro, Quarta-feira

    Tempo Temperatura Precipitação Vento Pressão Humidade
    00:00 +2°C° 0 mm 3 m/s 758 mmHg 74%
    01:00 +2°C° 0 mm 3 m/s 758 mmHg 79%
    02:00 +2°C° 0 mm 3 m/s 759 mmHg 83%
    03:00 +2°C° 0 mm 3 m/s 759 mmHg 86%
    04:00 +2°C° 0 mm 3 m/s 759 mmHg 89%
    05:00 +2°C° 0 mm 3 m/s 759 mmHg 92%
    06:00 +3°C° 0 mm 3 m/s 759 mmHg 87%
    07:00 +4°C° 0 mm 3 m/s 759 mmHg 82%
    08:00 +5°C° 0 mm 4 m/s 759 mmHg 77%
    09:00 +6°C° 0 mm 4 m/s 758 mmHg 69%
    10:00 +8°C° 0 mm 5 m/s 758 mmHg 62%
    11:00 +10°C° 0 mm 6 m/s 757 mmHg 54%
    12:00 +10°C° 0.1 mm 6 m/s 756 mmHg 59%
    13:00 +9°C° 0.1 mm 6 m/s 755 mmHg 64%
    14:00 +9°C° 0.1 mm 6 m/s 754 mmHg 69%
    15:00 +8°C° 1 mm 7 m/s 753 mmHg 75%
    16:00 +6°C° 1 mm 7 m/s 752 mmHg 81%
    17:00 +6°C° 1 mm 8 m/s 751 mmHg 88%
    18:00 +6°C° 1.2 mm 8 m/s 749 mmHg 88%
    19:00 +6°C° 1.2 mm 8 m/s 748 mmHg 88%
    20:00 +6°C° 1.2 mm 8 m/s 747 mmHg 88%
    21:00 +6°C° 0.8 mm 7 m/s 747 mmHg 89%
    22:00 +8°C° 0.8 mm 7 m/s 746 mmHg 90%
    23:00 +8°C° 0.8 mm 6 m/s 745 mmHg 91%

    27 Setembro, Quinta-feira

    Tempo Temperatura Precipitação Vento Pressão Humidade
    00:00 +8°C° 0.4 mm 5 m/s 745 mmHg 90%
    01:00 +7°C° 0.4 mm 4 m/s 746 mmHg 90%
    02:00 +7°C° 0.4 mm 4 m/s 746 mmHg 89%
    03:00 +6°C° 0 mm 4 m/s 746 mmHg 89%
    04:00 +6°C° 0 mm 4 m/s 746 mmHg 90%
    05:00 +5°C° 0 mm 4 m/s 746 mmHg 90%
    06:00 +6°C° 0 mm 4 m/s 746 mmHg 87%
    07:00 +6°C° 0 mm 4 m/s 746 mmHg 85%
    08:00 +7°C° 0 mm 4 m/s 746 mmHg 83%
    09:00 +8°C° 0.1 mm 5 m/s 746 mmHg 75%
    10:00 +10°C° 0.1 mm 5 m/s 746 mmHg 66%
    11:00 +11°C° 0.1 mm 6 m/s 746 mmHg 58%
    12:00 +11°C° 0 mm 6 m/s 746 mmHg 54%
    13:00 +13°C° 0 mm 6 m/s 746 mmHg 51%
    14:00 +13°C° 0 mm 6 m/s 746 mmHg 47%
    15:00 +12°C° 0 mm 5 m/s 746 mmHg 52%
    16:00 +11°C° 0 mm 4 m/s 747 mmHg 57%
    17:00 +10°C° 0 mm 3 m/s 747 mmHg 61%
    18:00 +9°C° 0 mm 3 m/s 748 mmHg 64%
    19:00 +8°C° 0 mm 3 m/s 748 mmHg 67%
    20:00 +7°C° 0 mm 3 m/s 748 mmHg 70%
    21:00 +5°C° 0 mm 3 m/s 749 mmHg 73%
    22:00 +5°C° 0 mm 3 m/s 749 mmHg 77%
    23:00 +4°C° 0 mm 3 m/s 749 mmHg 80%

    28 Setembro, Sexta-feira

    Tempo Temperatura Precipitação Vento Pressão Humidade
    00:00 +5°C° 0 mm 2 m/s 749 mmHg 82%
    01:00 +5°C° 0 mm 2 m/s 749 mmHg 84%
    02:00 +4°C° 0 mm 2 m/s 749 mmHg 87%
    03:00 +5°C° 0.3 mm 2 m/s 748 mmHg 87%
    04:00 +5°C° 0.3 mm 2 m/s 747 mmHg 88%
    05:00 +5°C° 0.3 mm 2 m/s 746 mmHg 89%
    06:00 +5°C° 1.9 mm 2 m/s 745 mmHg 90%
    07:00 +4°C° 1.9 mm 3 m/s 744 mmHg 92%
    08:00 +4°C° 1.9 mm 3 m/s 743 mmHg 93%
    09:00 +5°C° 2.2 mm 4 m/s 742 mmHg 93%
    10:00 +6°C° 2.2 mm 4 m/s 741 mmHg 93%
    11:00 +6°C° 2.2 mm 4 m/s 741 mmHg 93%
    12:00 +6°C° 0.8 mm 4 m/s 741 mmHg 93%
    13:00 +7°C° 0.8 mm 3 m/s 741 mmHg 92%
    14:00 +5°C° 0.8 mm 3 m/s 742 mmHg 92%
    15:00 +5°C° 0.2 mm 3 m/s 743 mmHg 91%
    16:00 +5°C° 0.2 mm 3 m/s 744 mmHg 91%
    17:00 +5°C° 0.2 mm 3 m/s 745 mmHg 90%
    18:00 +4°C° 0 mm 3 m/s 746 mmHg 92%
    19:00 +4°C° 0 mm 2 m/s 747 mmHg 93%
    20:00 +4°C° 0 mm 2 m/s 748 mmHg 95%
    21:00 +3°C° 0 mm 2 m/s 749 mmHg 95%
    22:00 +3°C° 0 mm 2 m/s 749 mmHg 95%
    23:00 +3°C° 0 mm 1 m/s 750 mmHg 95%

    29 Setembro, Sábado

    Tempo Temperatura Precipitação Vento Pressão Humidade
    00:00 +3°C° 0 mm 1 m/s 750 mmHg 94%
    01:00 +3°C° 0 mm 1 m/s 751 mmHg 94%
    02:00 +3°C° 0 mm 1 m/s 751 mmHg 94%
    03:00 +3°C° 0.1 mm 1 m/s 752 mmHg 93%
    04:00 +4°C° 0.1 mm 1 m/s 752 mmHg 93%
    05:00 +4°C° 0.1 mm 1 m/s 753 mmHg 92%
    06:00 +4°C° 0.3 mm 1 m/s 753 mmHg 91%
    07:00 +4°C° 0.3 mm 1 m/s 754 mmHg 89%
    08:00 +4°C° 0.3 mm 2 m/s 755 mmHg 88%
    09:00 +4°C° 0.1 mm 2 m/s 755 mmHg 83%
    10:00 +5°C° 0.1 mm 2 m/s 756 mmHg 77%
    11:00 +5°C° 0.1 mm 3 m/s 757 mmHg 72%
    12:00 +5°C° 0 mm 3 m/s 757 mmHg 67%
    13:00 +7°C° 0 mm 3 m/s 758 mmHg 61%
    14:00 +7°C° 0 mm 3 m/s 758 mmHg 55%
    15:00 +5°C° 0 mm 3 m/s 759 mmHg 60%
    16:00 +6°C° 0 mm 2 m/s 759 mmHg 64%
    17:00 +6°C° 0 mm 1 m/s 760 mmHg 68%
    18:00 +5°C° 0 mm 1 m/s 760 mmHg 72%
    19:00 +4°C° 0 mm 1 m/s 761 mmHg 76%
    20:00 +3°C° 0 mm 1 m/s 761 mmHg 79%
    21:00 +2°C° 0 mm 1 m/s 761 mmHg 81%
    22:00 +2°C° 0 mm 1 m/s 762 mmHg 82%
    23:00 +2°C° 0 mm 1 m/s 762 mmHg 83%
    Mostrar mais